カタログに戻る

STARLINK-34054

運用中通信VLEO
NORAD 64141·PAYLOAD·🇺🇸 United States

打ち上げ May 24, 2025 から Cape Canaveral Space Force Station

Loading…

次のパス (今後24時間)

TLE

最新Source: CelesTrak SupGP

元期: Sep 14, 2026, 20:43 UTC

1 64141C 25111U   26257.86368056 -.00079899  00000+0 -28948-2 0  2573
2 64141  43.0024  89.4428 0001150 265.5027 177.0345 15.27608827    14

AllMySatでSTARLINK-34054をリアルタイム追跡

Download on the App Store